Weather in Paternoster

South Africa     32°48′38″S   17°53′50″E
temp.,
°C
wind,
m/s
gust,
m/s
humid.,
%
clouds,
%
prec.,
mm/h
press.,
hPa
HPBL,
m
2 march, tue
tue223:00+18nw57920 0.0 1013149
02:00+17nw34940 0.0 101382
05:00+17n33951 0.0 101346
08:00+17n44921 0.0 1014102
11:00+18n34860 0.0 1014210
14:00+19wnw44803 0.0 1012247
17:00+21wsw56730 0.0 1012239
20:00+19ssw44810 0.0 101356
3 march, wed
wed323:00+18sw33870 0.0 101534
02:00+17ssw22900 0.0 101423
05:00+17s12920 0.0 101423
08:00+17ese01920 0.0 101547
11:00+18nnw32830 0.0 1015319
14:00+20w66724 0.0 1014361
17:00+20sw79740 0.0 1012298
20:00+19s57830 0.0 1013148
4 march, thu
thu423:00+18s45910 0.0 101588
02:00+18s69938 0.0 1013206
05:00+18s7108715 0.0 1013294
08:00+18s710858 0.0 1014316
11:00+20s89700 0.0 1014305
14:00+20ssw810660 0.0 1013264
17:00+20ssw1013680 0.0 1012325
20:00+18s914760 0.0 1013400
5 march, fri
fri523:00+17s711810 0.0 1014306
02:00+17s59840 0.0 1013215
05:00+16s34870 0.0 101297
08:00+17sse33810 0.0 101381
11:00+20nw21690 0.0 1013216
14:00+21wsw55660 0.0 1012346
17:00+22sw67600 0.0 1011172
20:00+19s69820 0.0 1012155
6 march, sat
sat623:00+18ssw34890 0.0 101350
02:00+17ssw23900 0.0 101234
05:00+17wsw12930 0.0 101323
08:00+18wnw23944 0.0 101480
11:00+19wnw448293 0.1 1015227
14:00+20wnw557388 0.1 1016343
17:00+20wsw67746 0.0 1015323
20:00+18ssw57813 0.0 1017143